"2009-02-23 00:00:00",654106,4.333,55.73,6.149,1.248,8.11,102.8236,6.507,7.515,25.41,0,109.9,13.43,7.28,17.7
"2009-02-23 00:00:30",654107,2.964,53.62,1.532,0.046,5.936,102.8273,6.516,7.431,25.29,0,109.9,13.46,7.29,15.6
"2009-02-23 00:01:00",654108,2.997,59.03,1,0.119,6.442,102.8573,6.593,7.454,25.13,0,109.9,13.47,7.37,21.0
"2009-02-23 00:01:30",654109,4.84,67.26,6.151,1.275,10.14,102.8747,6.637,7.698,25.2,0,109.9,13.44,7.41,29.3
"2009-02-23 00:02:00",654110,5.163,65.08,6.134,1.145,10.79,102.8993,6.7,7.729,25.15,0,109.9,13.44,7.48,27.1
"2009-02-23 00:02:30",654111,5.091,69.97,6.711,1.223,10.43,102.9087,6.724,7.806,25,0,109.9,13.44,7.50,32.0
"2009-02-23 00:03:00",654112,5.302,71.71,7.352,1.19,10.64,102.9393,6.802,7.831,24.9,0,109.9,13.44,7.58,33.7
"2009-02-23 00:03:30",654113,3.701,66.36,3.741,0.754,6.924,102.9613,6.859,7.71,24.54,0,109.9,13.44,7.63,28.4
"2009-02-23 00:04:00",654114,3.378,65.35,1.483,0.041,6.678,102.9888,6.929,7.702,24.32,0,109.9,13.47,7.71,27.3
"2009-02-23 00:04:30",654115,3.532,71.29,1.172,0.067,7.046,103.021,7.011,7.76,24.23,0,109.9,13.47,7.79,33.3
"2009-02-23 00:05:00",654116,4.649,84.1,7.693,1.221,10.52,103.0561,7.101,8.08,24.48,0,109.9,13.44,7.88,46.1
"2009-02-23 00:05:30",654117,5.367,90.4,6.619,1.196,11.06,103.0953,7.201,8.12,24.45,0,109.9,13.44,7.98,52.4
"2009-02-23 00:06:00",654118,6.6,98.6,3.7,0.723,12.44,103.134,7.3,8.24,24.31,0,109.9,13.43,8.08,60.6
"2009-02-23 00:06:30",654119,5.792,94.3,6.654,1.285,10.47,103.1801,7.418,8.33,24.04,0,109.9,13.43,8.20,56.3
"2009-02-23 00:07:00",654120,5.017,88.9,4.718,0.925,7.998,103.2189,7.517,8.21,23.72,0,109.9,13.43,8.30,50.9
"2009-02-23 00:07:30",654121,4.241,84.4,0.671,0.095,7.042,103.2525,7.603,8.24,23.55,0,109.9,13.46,8.38,46.4
"2009-02-23 00:08:00",654122,3.993,83.2,0.822,0.064,7.478,103.2768,7.665,8.31,23.49,0,109.9,13.46,8.44,45.2
"2009-02-23 00:08:30",654123,5.541,87.4,6.502,1.279,10.61,103.2873,7.692,8.55,23.52,0,109.9,13.43,8.47,49.4
"2009-02-23 00:09:00",654124,5.837,91.1,6.415,1.153,11.44,103.2878,7.693,8.68,23.48,0,109.9,13.43,8.47,53.1
"2009-02-23 00:09:30",654125,6.17,94.8,5.625,0.969,11.65,103.2923,7.705,8.68,23.31,0,109.9,13.43,8.48,56.8
"2009-02-23 00:10:00",654126,6.126,97.9,5.875,1.226,10.83,103.3166,7.767,8.66,23.09,0,109.9,13.43,8.55,59.9
"2009-02-23 00:10:30",654127,4.504,91.9,2.998,0.807,7.519,103.3277,7.795,8.53,22.77,0,109.9,13.43,8.57,53.9
"2009-02-23 00:11:00",654128,4.034,95,2.565,0.115,7.561,103.3554,7.866,8.58,22.6,0,109.9,13.46,8.65,57.0
"2009-02-23 00:11:30",654129,4.345,92.9,0.488,0.078,7.921,103.3867,7.946,8.65,22.54,0,109.9,13.47,8.73,54.9
"2009-02-23 00:12:00",654130,5.811,98.1,5.706,1.281,10.98,103.3952,7.968,8.88,22.65,0,109.9,13.44,8.75,60.1
"2009-02-23 00:12:30",654131,6.626,100,5.643,0.917,12.32,103.4141,8.02,9.02,22.79,0,109.9,13.44,8.80,62.0
"2009-02-23 00:13:00",654132,5.74,104.9,6.693,1.255,11.27,103.4231,8.04,9.03,22.74,0,109.9,13.44,8.82,66.9
"2009-02-23 00:13:30",654133,5.744,105.9,5.283,1.207,10.4,103.4271,8.05,8.92,22.54,0,109.9,13.44,8.83,67.9
"2009-02-23 00:14:00",654134,4.489,104.1,0.938,0.094,7.669,103.448,8.1,8.93,22.41,0,109.9,13.47,8.88,66.1
"2009-02-23 00:14:30",654135,4.499,103.8,1.646,0.134,7.702,103.461,8.14,8.89,22.22,0,109.9,13.47,8.92,65.8
"2009-02-23 00:15:00",654136,4.213,100.7,3.469,0.466,8.41,103.4873,8.2,8.96,22.37,0,109.9,13.44,8.98,62.7
"2009-02-23 00:15:30",654137,5.994,109.5,5.623,1.19,11.98,103.4906,8.21,9.25,22.61,0,109.9,13.44,8.99,71.5
"2009-02-23 00:16:00",654138,6.482,113.6,2.286,0.89,13.1,103.5,8.24,9.32,22.55,0,109.9,13.44,9.02,75.6
"2009-02-23 00:16:30",654139,5.432,108,6.276,1.296,10.99,103.5181,8.28,9.24,22.33,0,109.9,13.44,9.06,70.0
"2009-02-23 00:17:00",654140,4.756,103.4,4.725,0.96,8.72,103.5251,8.3,9.18,22.22,0,109.9,13.44,9.08,65.4
"2009-02-23 00:17:30",654141,5.096,104.7,6.22,1.101,9.23,103.5282,8.31,9.15,22.2,0,109.9,13.44,9.09,66.7
"2009-02-23 00:18:00",654142,4.677,102.7,0.992,0.071,8.1,103.5455,8.35,9.14,22.15,0,109.9,13.47,9.13,64.7
"2009-02-23 00:18:30",654143,5.021,103.5,3.903,0.804,9.2,103.5593,8.39,9.24,22.2,0,109.9,13.44,9.17,65.5
"2009-02-23 00:19:00",654144,6.48,107.4,6.906,1.185,12.19,103.5619,8.39,9.42,22.27,0,109.9,13.44,9.18,69.4
"2009-02-23 00:19:30",654145,6.384,100.4,6.612,1.123,11.68,103.561,8.39,9.47,22.35,0,109.9,13.44,9.17,62.4
"2009-02-23 00:20:00",654146,6.498,95.6,7.022,1.263,11.04,103.5548,8.38,9.47,22.51,0,109.9,13.44,9.16,57.6
"2009-02-23 00:20:30",654147,6.154,92.5,5.676,1.348,10.59,103.5271,8.3,9.33,22.49,0,109.9,13.44,9.09,54.5
"2009-02-23 00:21:00",654148,4.132,63.84,9.89,0.993,6.398,103.4819,8.19,9.11,22.31,0,109.9,13.44,8.97,25.8
"2009-02-23 00:21:30",654149,3.564,78.03,14.74,0.348,7.045,103.411,8.01,9,22.44,0,109.9,13.47,8.79,40.0
"2009-02-23 00:22:00",654150,5.406,88.8,7.101,1.13,11.04,103.3691,7.901,9.09,22.95,0,109.9,13.44,8.68,50.8
"2009-02-23 00:22:30",654151,5.484,85.3,11.16,0.993,11.25,103.3318,7.806,9.06,23.16,0,109.9,13.44,8.58,47.3
"2009-02-23 00:23:00",654152,3.775,75.65,12.22,1.167,7.946,103.294,7.709,8.86,23.15,0,109.9,13.43,8.49,37.7
"2009-02-23 00:23:30",654153,5.392,64.69,10.58,1.455,9.7,103.2462,7.587,8.8,23.27,0,109.9,13.43,8.37,26.7
"2009-02-23 00:24:00",654154,3.745,63.19,9.6,0.752,7.699,103.2169,7.512,8.68,23.37,0,109.9,13.43,8.29,25.2
"2009-02-23 00:24:30",654155,3.428,59.2,9.66,0.621,6.639,103.1858,7.432,8.45,23.35,0,109.9,13.43,8.21,21.2
"2009-02-23 00:25:00",654156,3.193,50.56,4.665,0.847,7.195,103.155,7.354,8.44,23.5,0,109.9,13.43,8.13,12.6
"2009-02-23 00:25:30",654157,4.849,83.2,10.88,1.133,11.83,103.147,7.333,8.52,23.81,0,109.9,13.43,8.11,45.2
"2009-02-23 00:26:00",654158,5.023,80.4,5.341,1.129,11.84,103.1926,7.45,8.61,23.95,0,109.9,13.43,8.23,42.4
"2009-02-23 00:26:30",654159,4.623,70.09,6.251,1.32,9.94,103.2214,7.523,8.57,23.88,0,109.9,13.43,8.30,32.1
"2009-02-23 00:27:00",654160,4.251,62.13,7.371,1.272,8.37,103.2209,7.522,8.55,23.71,0,109.9,13.43,8.30,24.1
"2009-02-23 00:27:30",654161,4.359,57.92,5.587,1.364,8.64,103.2177,7.514,8.54,23.68,0,109.9,13.44,8.29,19.9
"2009-02-23 00:28:00",654162,2.826,58.49,4.618,0.236,6.64,103.2082,7.49,8.39,23.59,0,109.9,13.47,8.27,20.5
"2009-02-23 00:28:30",654163,2.434,47.69,8.36,0.226,7.144,103.1903,7.444,8.46,23.75,0,109.9,13.48,8.22,9.7
"2009-02-23 00:29:00",654164,4.089,70.62,9.28,1.152,10.36,103.1855,7.432,8.54,23.83,0,109.9,13.44,8.21,32.6
"2009-02-23 00:29:30",654165,3.979,55.86,7.406,1.438,9.93,103.1835,7.427,8.52,23.82,0,109.9,13.44,8.20,17.9
"2009-02-23 00:30:00",654166,3.8,76.22,13.98,1.298,10.04,103.1832,7.426,8.53,23.84,0,109.9,13.44,8.20,38.2
"2009-02-23 00:30:30",654167,4.41,87.5,10.75,1.285,10.2,103.1906,7.445,8.53,23.96,0,109.9,13.44,8.22,49.5
"2009-02-23 00:31:00",654168,3.271,75.14,8.14,1.384,8.09,103.2203,7.521,8.4,23.86,0,109.9,13.44,8.30,37.1
"2009-02-23 00:31:30",654169,3.719,83,8.64,1.097,8.47,103.2212,7.523,8.47,23.86,0,109.9,13.44,8.30,45.0
"2009-02-23 00:32:00",654170,3.793,90,4.629,0.294,7.496,103.2472,7.589,8.39,23.7,0,109.9,13.48,8.37,52.0
"2009-02-23 00:32:30",654171,4.671,88.6,7.774,1.42,8.99,103.2568,7.614,8.59,23.71,0,109.9,13.44,8.39,50.6
"2009-02-23 00:33:00",654172,5.671,92.9,5.789,1.121,11.39,103.2686,7.644,8.73,23.83,0,109.9,13.44,8.42,54.9
"2009-02-23 00:33:30",654173,5.276,82.5,9.22,1.235,10.84,103.2636,7.631,8.71,23.82,0,109.9,13.44,8.41,44.5
"2009-02-23 00:34:00",654174,5.457,83.8,8.09,1.217,10.12,103.2554,7.61,8.59,23.67,0,109.9,13.44,8.39,45.8
"2009-02-23 00:34:30",654175,4.252,73.73,7.212,0.94,8.83,103.2624,7.628,8.6,23.76,0,109.9,13.44,8.41,35.7
"2009-02-23 00:35:00",654176,3.081,69.9,5.916,0.82,7.33,103.2619,7.627,8.47,23.61,0,109.9,13.44,8.41,31.9
"2009-02-23 00:35:30",654177,3.436,72.82,9.99,0.455,7.342,103.2785,7.669,8.49,23.54,0,109.9,13.48,8.45,34.8
"2009-02-23 00:36:00",654178,3.23,77.58,11.87,0.669,8.02,103.2878,7.693,8.54,23.51,0,109.9,13.44,8.47,39.6
"2009-02-23 00:36:30",654179,5.302,78.05,9.57,0.738,12.33,103.2881,7.694,8.82,23.91,0,109.9,13.45,8.47,40.1
"2009-02-23 00:37:00",654180,3.81,79.67,13.49,1.416,10.96,103.2881,7.694,8.77,23.85,0,109.9,13.45,8.47,41.7
"2009-02-23 00:37:30",654181,2.944,91.6,6.604,0.984,7.84,103.2878,7.693,8.56,23.61,0,109.9,13.44,8.47,53.6
"2009-02-23 00:38:00",654182,4.605,90.5,6.436,1.342,8.76,103.2873,7.692,8.63,23.78,0,109.9,13.44,8.47,52.5
"2009-02-23 00:38:30",654183,3.868,87.7,4.705,0.928,8.47,103.2853,7.687,8.68,23.99,0,109.9,13.44,8.47,49.7
"2009-02-23 00:39:00",654184,3.421,86.7,1.05,0.043,7.302,103.2878,7.693,8.53,23.86,0,109.9,13.48,8.47,48.7
"2009-02-23 00:39:30",654185,3.5,87.1,1.135,0.071,7.574,103.2881,7.694,8.54,23.78,0,109.9,13.48,8.47,49.1
"2009-02-23 00:40:00",654186,5.373,98.7,4.849,1.106,12.02,103.2881,7.694,8.87,24.1,0,109.9,13.44,8.47,60.7
"2009-02-23 00:40:30",654187,5.719,99.1,2.887,0.811,12.13,103.2881,7.694,8.86,24.15,0,109.9,13.44,8.47,61.1
"2009-02-23 00:41:00",654188,4.315,90.6,5.612,1.199,8.44,103.2873,7.692,8.58,23.93,0,109.9,13.44,8.47,52.6
"2009-02-23 00:41:30",654189,4.506,88.6,4.861,1.362,8.72,103.2763,7.664,8.65,24.03,0,109.9,13.44,8.44,50.6
"2009-02-23 00:42:00",654190,3.513,81.5,5.816,0.827,7.432,103.2545,7.608,8.61,23.93,0,109.9,13.44,8.39,43.5
"2009-02-23 00:42:30",654191,3.277,82.6,1.427,0.063,7.336,103.2542,7.607,8.5,23.92,0,109.9,13.47,8.39,44.6
"2009-02-23 00:43:00",654192,3.308,81.4,0.947,0.033,7.587,103.2542,7.607,8.47,23.95,0,109.9,13.48,8.39,43.4
"2009-02-23 00:43:30",654193,5.274,90.4,5.825,1.048,11.48,103.2531,7.604,8.76,24.33,0,109.9,13.44,8.38,52.4
"2009-02-23 00:44:00",654194,5.655,90.5,4.578,0.686,12.23,103.2359,7.56,8.75,24.32,0,109.9,13.44,8.34,52.5
"2009-02-23 00:44:30",654195,4.113,83.1,6.547,1.181,8.75,103.2206,7.521,8.6,24.27,0,109.9,13.45,8.30,45.1
"2009-02-23 00:45:00",654196,4.16,81.3,6.177,1.199,8.44,103.2203,7.521,8.58,24.26,0,109.9,13.44,8.30,43.3
"2009-02-23 00:45:30",654197,3.779,77.7,4.654,0.884,7.631,103.2203,7.521,8.51,24.28,0,109.9,13.45,8.30,39.7
"2009-02-23 00:46:00",654198,3.471,78.82,3.678,0.668,7.771,103.2119,7.499,8.41,24.27,0,109.9,13.45,8.28,40.8
"2009-02-23 00:46:30",654199,3.278,81,0.685,0.053,7.995,103.2059,7.484,8.45,24.4,0,109.9,13.48,8.26,43.0
"2009-02-23 00:47:00",654200,5.422,93.9,7.194,1.343,11.84,103.2201,7.52,8.67,23.86,0,109.9,13.45,8.30,55.9
"2009-02-23 00:47:30",654201,5.902,97.3,5.878,1.095,11.82,103.2554,7.61,8.68,23.1,0,109.9,13.45,8.39,59.3
"2009-02-23 00:48:00",654202,4.549,90.5,6.16,1.125,8.55,103.2901,7.699,8.56,22.74,0,109.9,13.45,8.48,52.5
"2009-02-23 00:48:30",654203,4.577,90.8,6.443,1.21,8.83,103.3201,7.776,8.67,23.16,0,109.9,13.45,8.55,52.8
"2009-02-23 00:49:00",654204,4.5,90.1,6.348,1.234,9.33,103.322,7.781,8.72,23.53,0,109.9,13.45,8.56,52.1
"2009-02-23 00:49:30",654205,3.543,84.8,3.506,0.465,8.03,103.3192,7.773,8.7,23.95,0,109.9,13.48,8.55,46.8
"2009-02-23 00:50:00",654206,4.458,87.8,6.952,1.307,8.76,103.2912,7.702,8.6,24.09,0,109.9,13.45,8.48,49.8
"2009-02-23 00:50:30",654207,4.656,89.1,6.772,1.312,10.35,103.2825,7.68,8.81,24.4,0,109.9,13.45,8.46,51.1
"2009-02-23 00:51:00",654208,5.306,93.8,5.564,1.103,10.81,103.2664,7.638,8.77,24.17,0,109.9,13.45,8.42,55.8
"2009-02-23 00:51:30",654209,4.432,91.6,5.762,1.23,8.84,103.2695,7.646,8.7,23.74,0,109.9,13.45,8.43,53.6
"2009-02-23 00:52:00",654210,3.744,88.3,0.542,0.067,7.147,103.2833,7.682,8.61,23.31,0,109.9,13.48,8.46,50.3
"2009-02-23 00:52:30",654211,4.577,93.4,6.383,1.425,9.23,103.2881,7.694,8.64,23.62,0,109.9,13.45,8.47,55.4
"2009-02-23 00:53:00",654212,4.264,92.9,6.25,1.222,8.99,103.2862,7.689,8.66,24.01,0,109.9,13.45,8.47,54.9
"2009-02-23 00:53:30",654213,4.329,91.7,6.29,1.237,9.03,103.2698,7.647,8.69,24.21,0,109.9,13.45,8.43,53.7
"2009-02-23 00:54:00",654214,4.153,89.8,4.321,0.969,7.509,103.2545,7.608,8.55,24.25,0,109.9,13.45,8.39,51.8
"2009-02-23 00:54:30",654215,5.169,95.6,5.937,1.251,10.2,103.2542,7.607,8.76,24.51,0,109.9,13.45,8.39,57.6
"2009-02-23 00:55:00",654216,5.408,94.4,6.179,1.081,10.68,103.2475,7.59,8.68,24.28,0,109.9,13.45,8.37,56.4
"2009-02-23 00:55:30",654217,3.165,85.5,0.681,0.09,7.227,103.2328,7.552,8.56,24.27,0,109.9,13.48,8.33,47.5
"2009-02-23 00:56:00",654218,4.04,92.4,6.77,1.279,9.02,103.2206,7.521,8.53,24.37,0,109.9,13.44,8.30,54.4
"2009-02-23 00:56:30",654219,3.934,90.2,6.83,1.282,9.57,103.2203,7.521,8.63,24.68,0,109.9,13.44,8.30,52.2
"2009-02-23 00:57:00",654220,4.193,89.6,6.81,1.313,9.61,103.2203,7.521,8.55,24.56,0,109.9,13.44,8.30,51.6
"2009-02-23 00:57:30",654221,3.074,82.3,0.565,0.06,7.137,103.213,7.502,8.41,24.41,0,109.9,13.48,8.28,44.3
"2009-02-23 00:58:00",654222,3.527,84.4,5.712,1.112,8.24,103.1895,7.442,8.51,24.55,0,109.9,13.44,8.22,46.4
"2009-02-23 00:58:30",654223,4.864,89.2,6.451,1.178,10.56,103.1864,7.434,8.57,24.65,0,109.9,13.44,8.21,51.2
"2009-02-23 00:59:00",654224,3.713,78.18,6.578,1.224,8.28,103.1791,7.415,8.49,24.62,0,109.9,13.45,8.19,40.2
"2009-02-23 00:59:30",654225,4.172,76.21,6.841,1.116,9.06,103.1542,7.352,8.46,24.62,0,109.9,13.44,8.13,38.2
"2009-02-23 01:00:00",654226,4.757,90.5,7.723,1.154,10.42,103.1243,7.275,8.48,24.79,0,109.9,13.45,8.05,52.5
"2009-02-23 01:00:30",654227,3.097,84.5,3.63,0.167,7.126,103.1186,7.261,8.3,24.73,0,109.9,13.48,8.04,46.5
"2009-02-23 01:01:00",654228,3.024,85.5,3.332,0.178,6.833,103.1186,7.261,8.21,24.7,0,109.9,13.48,8.04,47.5
"2009-02-23 01:01:30",654229,3.632,90.5,5.795,1.234,8.41,103.1186,7.261,8.37,24.89,0,109.9,13.45,8.04,52.5
"2009-02-23 01:02:00",654230,4.962,90.1,9.13,1.174,10.44,103.1175,7.258,8.4,24.9,0,109.9,13.45,8.04,52.1
"2009-02-23 01:02:30",654231,4.256,90.4,4.699,1.165,8.56,103.1008,7.215,8.22,24.71,0,109.9,13.45,7.99,52.4
"2009-02-23 01:03:00",654232,4.51,94.3,6.06,1.238,9.14,103.1155,7.253,8.31,24.8,0,109.9,13.45,8.03,56.3
"2009-02-23 01:03:30",654233,5.462,97.6,5.679,1.165,10.72,103.1186,7.261,8.34,24.8,0,109.9,13.45,8.04,59.6
"2009-02-23 01:04:00",654234,3.627,88.8,1.012,0.04,7.101,103.1401,7.316,8.21,24.62,0,109.9,13.49,8.09,50.8
"2009-02-23 01:04:30",654235,3.553,88.3,1.143,0.039,6.767,103.1525,7.347,8.22,24.68,0,109.9,13.49,8.13,50.3
"2009-02-23 01:05:00",654236,3.59,90,0.875,0.081,7.093,103.1525,7.347,8.32,24.69,0,109.9,13.45,8.13,52.0
"2009-02-23 01:05:30",654237,5.451,99.3,6.136,1.259,10.75,103.1525,7.347,8.48,24.89,0,109.9,13.45,8.13,61.3
"2009-02-23 01:06:00",654238,5.169,94.6,7.044,1.27,9.35,103.1525,7.347,8.37,24.79,0,109.9,13.45,8.13,56.6
"2009-02-23 01:06:30",654239,5.714,96.4,6.079,1.083,10.75,103.1525,7.347,8.49,24.95,0,109.9,13.45,8.13,58.4
"2009-02-23 01:07:00",654240,5.191,93.6,6.772,1.265,10.16,103.1491,7.339,8.4,24.93,0,109.9,13.45,8.12,55.6
"2009-02-23 01:07:30",654241,3.46,82.7,1.122,0.115,6.658,103.1249,7.277,8.21,24.88,0,109.9,13.49,8.05,44.7
"2009-02-23 01:08:00",654242,3.457,82,0.764,0.071,6.616,103.1186,7.261,8.25,25,0,109.9,13.49,8.04,44.0
"2009-02-23 01:08:30",654243,4.635,90,6.877,1.233,9.84,103.1133,7.247,8.26,25.04,0,109.9,13.45,8.02,52.0
"2009-02-23 01:09:00",654244,4.57,83.1,9.18,1.287,9.67,103.0904,7.189,8.36,25.26,0,109.9,13.45,7.97,45.1
"2009-02-23 01:09:30",654245,4.596,85.4,6.779,1.229,9.68,103.0825,7.168,8.25,25.17,0,109.9,13.45,7.95,47.4
"2009-02-23 01:10:00",654246,4.461,82.3,7.022,1.218,10.05,103.0582,7.106,8.32,25.39,0,110,13.45,7.88,44.3
"2009-02-23 01:10:30",654247,3.829,68.87,7.453,1.306,8.69,103.0506,7.087,8.25,25.28,0,109.9,13.45,7.86,30.9
"2009-02-23 01:11:00",654248,3.032,74.05,5.684,0.687,6.625,103.0223,7.015,8,25.22,0,109.9,13.45,7.79,36.1
"2009-02-23 01:11:30",654249,2.885,76.07,2.115,0.088,6.292,103.0175,7.002,7.974,25.37,0,109.9,13.49,7.78,38.1
"2009-02-23 01:12:00",654250,4.265,80.4,5.147,1.301,9.06,103.0167,7,8.05,25.48,0,109.9,13.45,7.78,42.4
"2009-02-23 01:12:30",654251,4.721,81.9,7.176,1.268,9.81,102.9952,6.945,8.1,25.48,0,109.9,13.45,7.72,43.9
"2009-02-23 01:13:00",654252,5.949,92.2,8.74,1.245,11.09,102.9833,6.915,8.14,25.34,0,109.9,13.45,7.69,54.2
"2009-02-23 01:13:30",654253,5.459,90.8,7.389,1.281,10.15,103.0017,6.962,8.16,24.97,0,109.9,13.45,7.74,52.8
"2009-02-23 01:14:00",654254,4.836,90.1,6.353,1.335,8.63,103.0294,7.033,7.964,24.31,0,109.9,13.45,7.81,52.1
"2009-02-23 01:14:30",654255,3.763,86.8,2.579,0.182,6.841,103.0577,7.105,7.958,24.22,0,109.9,13.48,7.88,48.8
"2009-02-23 01:15:00",654256,4.29,92.8,6.094,1.104,8.08,103.0919,7.192,8.05,24.24,0,109.9,13.45,7.97,54.8
"2009-02-23 01:15:30",654257,4.229,93.6,7.213,1.356,8.65,103.1205,7.265,8.08,24.28,0,109.9,13.45,8.04,55.6
"2009-02-23 01:16:00",654258,4.792,102.4,9.06,1.597,10.85,103.1428,7.323,8.38,24.46,0,109.9,13.45,8.10,64.4
"2009-02-23 01:16:30",654259,5.879,103.6,6.409,1.227,11.02,103.1635,7.375,8.36,24.4,0,109.9,13.45,8.15,65.6
"2009-02-23 01:17:00",654260,5.424,98.9,7.418,1.151,11.23,103.1923,7.449,8.48,24.38,0,109.9,13.45,8.23,60.9
"2009-02-23 01:17:30",654261,3.772,89.3,3.681,0.848,7.981,103.2096,7.493,8.4,24.17,0,109.9,13.46,8.27,51.3
"2009-02-23 01:18:00",654262,3.926,89.3,6.188,1.008,8,103.2291,7.543,8.36,24,0,109.9,13.45,8.32,51.3
"2009-02-23 01:18:30",654263,3.618,81.7,1.795,0.136,7.19,103.2305,7.547,8.38,23.94,0,109.9,13.49,8.33,43.7
"2009-02-23 01:19:00",654264,4.758,88.9,6.572,1.412,9.99,103.2402,7.571,8.57,24.07,0,109.9,13.46,8.35,50.9
"2009-02-23 01:19:30",654265,5.008,88.1,6.195,1.23,10.66,103.2319,7.55,8.61,24.2,0,109.9,13.46,8.33,50.1
"2009-02-23 01:20:00",654266,5.232,85.3,6.709,1.157,10.54,103.2291,7.543,8.61,24.29,0,109.9,13.46,8.32,47.3
"2009-02-23 01:20:30",654267,5.298,85.9,5.748,1.231,10.59,103.2257,7.534,8.63,24.48,0,109.9,13.46,8.31,47.9
"2009-02-23 01:21:00",654268,3.94,76.84,5.446,0.88,7.562,103.1952,7.456,8.52,24.81,0,109.9,13.46,8.23,38.8
"2009-02-23 01:21:30",654269,4.068,77.76,3.717,1.124,7.561,103.1644,7.378,8.31,24.86,0,109.9,13.46,8.16,39.8
"2009-02-23 01:22:00",654270,3.378,76.36,0.829,0.059,7.059,103.1463,7.332,8.37,25.06,0,109.9,13.49,8.11,38.4
"2009-02-23 01:22:30",654271,4.99,84.8,7.526,1.268,9.99,103.1271,7.282,8.34,25.01,0,109.9,13.46,8.06,46.8
"2009-02-23 01:23:00",654272,5.019,87.7,6.436,1.121,10.94,103.1265,7.281,8.46,25.2,0,109.9,13.46,8.06,49.7
"2009-02-23 01:23:30",654273,4.708,88.8,6.131,1.259,10.3,103.113,7.246,8.45,25.26,0,109.9,13.46,8.02,50.8
"2009-02-23 01:24:00",654274,4.2,84.8,6.044,1.282,9.01,103.1083,7.234,8.38,25.21,0,109.9,13.46,8.01,46.8
"2009-02-23 01:24:30",654275,3.862,79.2,5.746,1.18,7.476,103.0964,7.204,8.22,25.16,0,109.9,13.46,7.98,41.2
"2009-02-23 01:25:00",654276,3.311,76.98,5.421,0.855,7.321,103.093,7.195,8.19,25.24,0,109.9,13.46,7.97,39.0
"2009-02-23 01:25:30",654277,4.094,81,7.238,1.322,8.93,103.0713,7.14,8.17,25.3,0,109.9,13.46,7.92,43.0
"2009-02-23 01:26:00",654278,4.769,84,6.573,1.248,9.57,103.0625,7.117,8.25,25.32,0,109.9,13.46,7.89,46.0
"2009-02-23 01:26:30",654279,5.311,86,5.186,1.168,10.93,103.0634,7.119,8.25,25.39,0,109.9,13.46,7.90,48.0
"2009-02-23 01:27:00",654280,4.966,84.9,6.386,1.218,9.61,103.0634,7.119,8.11,25.29,0,109.9,13.46,7.90,46.9
"2009-02-23 01:27:30",654281,4.68,84.2,7.802,1.226,9.62,103.0631,7.119,8.25,25.45,0,109.9,13.45,7.90,46.2
"2009-02-23 01:28:00",654282,3.414,71.31,4.448,0.729,6.994,103.0552,7.099,8.14,25.32,0,109.9,13.45,7.88,33.3
"2009-02-23 01:28:30",654283,3.066,65.85,4.19,0.132,6.416,103.0363,7.05,7.985,25.17,0,109.9,13.49,7.83,27.8
"2009-02-23 01:29:00",654284,3.094,72.16,5.066,0.593,7.721,103.0312,7.037,8.12,25.39,0,109.9,13.45,7.81,34.2
"2009-02-23 01:29:30",654285,5.17,76.84,7.317,1.078,10.53,103.0295,7.033,8.18,25.53,0,109.9,13.45,7.81,38.8
"2009-02-23 01:30:00",654286,5.166,75.23,6.265,1.188,10.21,103.0123,6.989,8.18,25.66,0,109.9,13.45,7.77,37.2
"2009-02-23 01:30:30",654287,4.132,70.04,7.888,1.371,8.65,102.9988,6.954,7.986,25.53,0,109.9,13.45,7.73,32.0
"2009-02-23 01:31:00",654288,3.879,62.26,11.81,1.198,7.882,102.9979,6.952,8.05,25.56,0,109.9,13.45,7.73,24.3
"2009-02-23 01:31:30",654289,3.783,62.26,4.848,1.333,8.29,102.9855,6.921,7.923,25.42,0,109.9,13.45,7.70,24.3
"2009-02-23 01:32:00",654290,2.665,55.97,3.923,0.189,6.237,102.972,6.886,7.823,25.38,0,109.9,13.49,7.66,18.0
"2009-02-23 01:32:30",654291,3.754,56.32,5.817,1.25,7.962,102.9666,6.872,7.827,25.4,0,109.9,13.46,7.65,18.3
"2009-02-23 01:33:00",654292,4.707,62.03,9.67,1.352,10.05,102.9607,6.857,7.96,25.56,0,109.9,13.46,7.63,24.0
"2009-02-23 01:33:30",654293,4.601,75.06,11.66,1.176,10.29,102.9491,6.828,7.986,25.72,0,109.9,13.46,7.60,37.1
"2009-02-23 01:34:00",654294,4.416,65.58,8.22,1.282,9.57,102.9449,6.817,7.969,25.7,0,109.9,13.46,7.59,27.6
"2009-02-23 01:34:30",654295,4.295,82.5,7.886,1.279,9.55,102.9407,6.806,7.833,25.62,0,109.9,13.46,7.58,44.5
"2009-02-23 01:35:00",654296,2.85,66.57,6.349,0.292,6.362,102.9481,6.825,7.777,25.6,0,109.9,13.5,7.60,28.6
"2009-02-23 01:35:30",654297,3.055,72.71,3.711,0.167,6.455,102.9563,6.846,7.734,25.6,0,109.9,13.5,7.62,34.7
"2009-02-23 01:36:00",654298,2.823,57.63,6.675,0.317,6.731,102.9682,6.876,7.841,25.61,0,109.9,13.5,7.65,19.6
"2009-02-23 01:36:30",654299,4.102,60.67,7.875,1.347,10.32,102.9669,6.873,7.981,25.68,0,109.9,13.47,7.65,22.7
"2009-02-23 01:37:00",654300,4.692,57.34,7.508,1.105,9.98,102.9643,6.866,7.884,25.55,0,109.9,13.47,7.64,19.3
"2009-02-23 01:37:30",654301,3.688,61.97,9.27,1.251,8.22,102.959,6.853,7.909,25.62,0,109.9,13.47,7.63,24.0
"2009-02-23 01:38:00",654302,4.484,68.37,6.481,1.234,9.85,102.9514,6.833,7.922,25.67,0,109.9,13.47,7.61,30.4
"2009-02-23 01:38:30",654303,2.57,48.62,9.84,1.145,6.344,102.9446,6.816,7.703,25.33,0,109.9,13.47,7.59,10.6
"2009-02-23 01:39:00",654304,2.472,51.9,4.775,0.317,6.082,102.9458,6.819,7.677,25.26,0,109.9,13.5,7.59,13.9
"2009-02-23 01:39:30",654305,2.769,37.1,5.178,0.944,7.45,102.9452,6.818,7.842,25.28,0,109.9,13.47,7.59,359.1
"2009-02-23 01:40:00",654306,3.908,45.75,6.728,1.139,10.08,102.9464,6.821,7.819,25.25,0,109.9,13.47,7.60,7.8
"2009-02-23 01:40:30",654307,4.302,59.54,9.54,1.118,9.87,102.947,6.822,7.871,25.45,0,109.9,13.47,7.60,21.5
"2009-02-23 01:41:00",654308,4.427,61.21,8.56,1.058,10.32,102.9433,6.813,7.96,25.62,0,109.9,13.47,7.59,23.2
"2009-02-23 01:41:30",654309,3.673,51.93,7.769,1.182,8.16,102.9428,6.811,7.798,25.4,0,109.9,13.47,7.59,13.9
"2009-02-23 01:42:00",654310,3.387,46.95,4.818,1.056,7.299,102.9408,6.806,7.799,25.52,0,109.9,13.47,7.58,9.0
"2009-02-23 01:42:30",654311,2.894,45.32,1.971,0.1,6.144,102.9419,6.809,7.663,25.3,0,109.9,13.5,7.58,7.3
"2009-02-23 01:43:00",654312,4.127,64.69,8.3,1.19,8.89,102.9402,6.805,7.761,25.53,0,109.9,13.47,7.58,26.7
"2009-02-23 01:43:30",654313,3.866,66.74,4.841,1.301,8.94,102.9411,6.807,7.865,25.7,0,109.9,13.47,7.58,28.7
"2009-02-23 01:44:00",654314,4.293,66.1,7.01,1.262,9.62,102.9439,6.814,7.809,25.65,0,109.9,13.47,7.59,28.1
"2009-02-23 01:44:30",654315,4.525,70.83,8.51,1.298,10.62,102.947,6.822,7.954,25.79,0,109.9,13.47,7.60,32.8
"2009-02-23 01:45:00",654316,4.76,65.48,7.433,1.26,10.03,102.9462,6.82,7.821,25.57,0,109.9,13.46,7.60,27.5
"2009-02-23 01:45:30",654317,3.039,54.56,5.729,0.766,6.259,102.9476,6.824,7.651,25.6,0,109.9,13.46,7.60,16.6
"2009-02-23 01:46:00",654318,2.897,55.99,3.643,0.205,6.175,102.9465,6.821,7.633,25.7,0,109.9,13.49,7.60,18.0
"2009-02-23 01:46:30",654319,3.456,54.39,4.938,1.098,8.53,102.9431,6.812,7.792,25.75,0,109.9,13.46,7.59,16.4
"2009-02-23 01:47:00",654320,2.449,37.47,4.274,0.675,6.895,102.94,6.804,7.676,25.19,0,109.9,13.46,7.58,359.5
"2009-02-23 01:47:30",654321,3.565,51.65,12.84,1.236,8.78,102.9321,6.784,7.768,25.31,0,109.9,13.47,7.56,13.7
"2009-02-23 01:48:00",654322,4.049,49.37,4.463,1.281,10.11,102.9318,6.783,7.944,25.56,0,109.9,13.47,7.56,11.4
"2009-02-23 01:48:30",654323,4.155,42.89,7.975,1.152,9.78,102.9301,6.779,7.747,25.21,0,109.9,13.46,7.55,4.9
"2009-02-23 01:49:00",654324,1.862,30.4,7.574,0.248,6.019,102.921,6.756,7.63,24.94,0,109.9,13.5,7.53,352.4
"2009-02-23 01:49:30",654325,1.768,30.01,3.564,0.208,5.875,102.9171,6.746,7.618,24.84,0,109.9,13.5,7.52,352.0
"2009-02-23 01:50:00",654326,2.922,32.22,7.413,1.145,8.17,102.9162,6.744,7.766,24.83,0,109.9,13.47,7.52,354.2
"2009-02-23 01:50:30",654327,2.696,35.08,3.873,0.829,6.888,102.9162,6.744,7.692,24.81,0,109.9,13.47,7.52,357.1
"2009-02-23 01:51:00",654328,2.643,50.36,4.616,0.34,6.61,102.9162,6.744,7.669,25.18,0,109.9,13.48,7.52,12.4
"2009-02-23 01:51:30",654329,4.546,63.8,5.308,1.029,10.85,102.9162,6.744,7.909,25.78,0,109.9,13.47,7.52,25.8